Location: Lake Almanor
(40.2485°N, 121.1442°W)
Time: 10:49:13
(UTC-08:00)

STARLINK-1109 - Pass Details

Date: 31 January 2020
Orbit: 349 x 351 km, 53.0° (Epoch: 18 February)

Event Time Altitude Azimuth Distance (km) Brightness Sun altitude
Rises 18:12:11 0° 315° (NW) 2,164 7.1 -10.0°
Reaches altitude 10° 18:14:18 10° 324° (NW) 1,319 5.9 -10.4°
Maximum altitude 18:17:03 36° 33° (NNE) 583 3.4 -10.9°
Enters shadow 18:18:45 18° 92° (E) 935 4.2 -11.2°
